Regional Weather Roundup
Issued by NWS

Home | Current Version | Previous Version | Graphics & Text | Print | Product List | Glossary On
Versions: 1 2 3 4 5 6 7 8 9 10 11 12 13 14 15 16 17 18 19 20 21 22 23 24 25 26 27 28 29 30 31 32 33 34 35 36 37 38 39 40 41 42 43 44 45 46 47 48 49 50
000
ASUS43 KLMK 072302
RWRKY
KENTUCKY REGIONAL WEATHER ROUNDUP
NATIONAL WEATHER SERVICE LOUISVILLE KY
700 PM EDT TUE JUL 07 2015

NOTE "FAIR" INDICATES FEW OR NO CLOUDS BELOW 12,000 FEET
WITH NO SIGNIFICANT WEATHER AND/OR OBSTRUCTIONS TO VISIBILITY.

KYZ001>023-026-027-061>063-070>075-080000-
WESTERN AND SOUTH CENTRAL KENTUCKY

CITY           SKY/WX    TMP DP  RH WIND       PRES   REMARKS
PADUCAH        CLOUDY    75  72  90 W3        29.95F
HENDERSON      CLOUDY    79  72  78 SW5       29.94F
OWENSBORO      LGT RAIN  77  76  96 VRB3      29.97F
HOPKINSVILLE   CLOUDY    80  71  74 S7        29.99F
BOWLING GREEN  CLOUDY    85  71  63 SW17G24   30.00R HX  90
GLASGOW        NOT AVBL
$$

KYZ024-025-028>034-038-045-046-053-080000-
NORTH CENTRAL KENTUCKY

CITY           SKY/WX    TMP DP  RH WIND       PRES   REMARKS
LOUISVILLE/SDF CLOUDY    76  73  91 SW9       29.97F
LOUISVILLE/LOU CLOUDY    76  73  91 VRB5      29.99F
FORT KNOX      CLOUDY    76  73  89 S3        29.97F
$$

KYZ035>037-039>044-047>052-055>060-089>105-080000-
NORTHEAST KENTUCKY

CITY           SKY/WX    TMP DP  RH WIND       PRES   REMARKS
LEXINGTON      CLOUDY    73  70  90 SW6       30.01F
COVINGTON      LGT RAIN  74  71  91 W10       29.97S FOG
FRANKFORT      CLOUDY    73  70  90 SW5       30.00S
$$

KYZ054-064>069-076>088-106>120-080000-
SOUTHEAST KENTUCKY

CITY           SKY/WX    TMP DP  RH WIND       PRES   REMARKS
JACKSON        CLOUDY    78  71  79 CALM      30.04F
LONDON         CLOUDY    85  65  51 SW8       30.05S
SOMERSET       NOT AVBL
MIDDLESBORO    NOT AVBL
MONTICELLO     HAZE      80  73  79 W8        30.06F VSB 3/4
$$




USA.gov is the U.S. government's official web portal to all federal, state and local government web resources and services.